Location: Zarzalejo
(40.5487°N, 4.1819°W)
Time: 06:48:36
(UTC+00:00)

Daily predictions for brighter satellites

Satellite Brightness Start Highest point End
(mag) Time Altitude Azimuth Time Altitude Azimuth Time Altitude Azimuth
MOS 1-B 4.4 17:12:33 10° SSE 17:18:20 81° ENE 17:24:10 10° NNW
CZ-4B R/B 2.7 17:19:04 10° NE 17:21:21 19° E 17:23:38 10° SE
Cosmos 2278 Rocket 2.4 17:15:59 10° NNW 17:21:32 53° ENE 17:27:04 10° SE
Aureole 2 Rocket 2.7 17:18:50 10° NNW 17:21:35 56° WSW 17:24:25 10° S
Lacrosse 5 rocket 3.2 17:24:11 10° SSE 17:25:47 12° ESE 17:27:21 10° E
Cosmos 2154 Rocket 4.1 17:20:14 10° N 17:26:31 61° E 17:32:46 10° SSE
Cosmos 1862 3.3 17:23:06 10° N 17:27:07 60° E 17:31:04 10° SSE
USA 267 4.1 17:23:07 10° E 17:28:36 30° NNE 17:34:07 10° NW
FALCON 9 R/B 2.8 17:29:46 10° S 17:30:48 12° SSE 17:31:50 10° SE
NOSS 0 Rocket 4.0 17:25:32 10° SSW 17:31:47 90° NW 17:38:04 10° NNE
NOAA 12 4.1 17:28:30 10° SSE 17:33:44 64° ENE 17:39:01 10° N
ERS-2 3.0 17:31:33 10° NE 17:34:47 29° E 17:38:00 10° SSE
Cosmos 2341 Rocket 4.5 17:29:34 10° N 17:35:22 38° ENE 17:41:10 10° SE
SL-24 R/B - RUBIN 2 4.4 17:29:14 10° NNW 17:35:23 53° NE 17:40:49 10° SE
Cosmos 2219 Rocket 3.7 17:32:22 10° SW 17:37:32 35° WNW 17:42:41 10° N
CZ-4 R/B 3.3 17:38:22 11° ENE 17:38:22 11° ENE 17:39:02 10° NE
Landsat 5 4.3 17:34:07 10° N 17:38:25 57° WNW 17:42:47 10° SSW
Cosmos 2292 4.2 17:35:29 10° S 17:38:29 78° E 17:41:54 10° N
TELKOM 3 3.4 17:36:38 10° WSW 17:39:30 61° NNW 17:41:32 14° NE
CZ-3B R/B 3.5 17:38:25 10° S 17:40:36 13° SE 17:42:06 10° ESE
Envisat 3.5 17:35:39 10° S 17:40:41 65° W 17:45:45 10° NNW
SMAP 3.0 17:36:24 10° SSE 17:41:02 77° ENE 17:45:41 10° N
BREEZE-M DEB (TANK) 1.9 17:38:16 10° WSW 17:41:40 75° NNW 17:43:13 15° NE
CZ-4B R/B 3.1 17:36:54 10° SSE 17:42:16 81° ENE 17:47:36 10° NNW
H-2A R/B 2.4 17:39:04 10° N 17:43:12 65° WNW 17:47:24 10° SSW
SKYMED 2 4.4 17:42:20 10° NE 17:46:09 29° E 17:49:56 10° SSE
Cosmos 2237 Rocket 2.2 17:41:12 10° SSW 17:46:49 88° WNW 17:52:29 10° NNE
NOAA 11 4.2 17:43:47 10° SSE 17:49:05 57° ENE 17:54:24 10° N
Cosmos 1939 Rocket 3.6 17:46:40 10° SE 17:50:00 29° ENE 17:53:23 10° N
FengYun 1-2 T 4.2 17:45:45 10° SSE 17:51:14 64° ENE 17:56:42 10° N
H-2A R/B 3.5 17:52:26 15° ENE 17:53:27 16° ENE 17:56:27 10° NNE
Cosmos 1633 Rocket 3.9 17:50:08 10° NNE 17:53:52 27° ENE 17:57:34 10° SE
CORIOLIS 4.2 17:54:12 10° SSE 17:59:35 86° WSW 18:05:03 10° NNW
SL-8 Rocket 4.3 17:53:40 10° N 17:59:36 44° ENE 18:05:31 10° SSE
USA 281 3.7 17:55:42 10° ESE 18:01:34 36° NE 18:07:26 10° N
Cosmos 2369 Rocket 3.9 17:59:54 10° NNE 18:02:09 13° NE 18:02:09 13° NE
Cosmos 2181 Rocket 4.2 17:56:52 10° SSE 18:03:02 50° E 18:09:10 10° NNE
Cosmos 1980 4.3 17:59:27 10° SW 18:05:03 59° WNW 18:10:41 10° NNE
Abrixas rocket 1.7 18:04:06 10° WNW 18:06:52 81° SSW 18:08:23 23° SE
Meteor 2-12 Rocket 4.4 18:02:36 10° N 18:08:47 77° E 18:14:54 10° SSE
Cosmos 389 Rocket 3.0 18:15:49 10° SSW 18:19:13 59° W 18:22:36 10° N
YAOGAN 1 3.5 18:21:23 27° NE 18:21:23 27° NE 18:24:18 10° N
Cosmos 1689 Rocket 2.1 18:25:21 55° ESE 18:25:21 55° ESE 18:28:04 10° S
Cosmos 1933 3.2 18:21:40 10° S 18:25:41 83° E 18:29:41 10° N
YAOGAN 3 4.5 18:22:39 10° SSE 18:27:01 86° ENE 18:31:24 10° NNW
Cosmos 2297 3.8 18:23:14 10° NNW 18:28:45 50° ENE 18:34:09 11° SE
CZ-4 R/B 4.3 18:26:21 10° SSE 18:30:26 63° ENE 18:34:33 10° N
Cosmos 1943 Rocket 2.8 18:26:44 10° N 18:31:38 31° ENE 18:31:41 31° ENE
Cosmos 44 4.0 18:26:44 10° NNW 18:31:40 38° NE 18:32:40 35° ENE
Okean-O 2.8 18:28:09 10° SE 18:32:23 47° ENE 18:36:39 10° N
Cosmos 1867 3.7 18:28:44 10° SW 18:34:09 73° WNW 18:37:58 20° NNE
COSMO-SKYMED 1 2.6 18:29:56 10° N 18:34:17 80° WNW 18:38:37 10° SSW
CZ-2C R/B 3.1 18:29:29 10° SSE 18:34:31 51° ENE 18:39:18 10° N
Cosmos 1515 Rocket 4.1 18:30:38 10° SSE 18:34:01 36° ESE 18:34:01 36° ESE
SL-16 R/B 2.1 18:29:02 10° SSW 18:34:40 81° ESE 18:38:47 19° NNE
Cosmos 1606 4.3 18:34:25 10° SW 18:38:00 35° WNW 18:41:37 10° N
PSLV R/B 3.7 18:36:53 27° NNE 18:39:03 81° E 18:43:05 10° S
USA 215 3.7 18:35:13 19° NE 18:39:55 56° NW 18:46:16 10° WSW
SL-23 DEB 4.2 18:36:26 10° SW 18:40:03 59° SE 18:41:11 45° E
Meteor 1-26 Rocket 4.3 18:34:10 10° S 18:40:06 72° E 18:46:08 10° NNE
Sich 1 4.4 18:39:33 10° NNW 18:43:42 41° W 18:47:46 10° SSW
Cosmos 1782 2.9 18:39:53 10° S 18:43:16 54° SE 18:43:16 54° SE
Helios 1A Rocket 2.8 18:39:47 10° SSE 18:43:48 62° ENE 18:47:44 10° N
Okean O Rocket 4.0 18:40:14 10° SSW 18:43:45 24° W 18:47:19 10° NW
Cosmos 1538 Rocket 4.4 18:39:04 10° S 18:43:58 40° ESE 18:43:58 40° ESE
Cosmos 2218 Rocket 3.8 18:39:19 10° N 18:45:30 84° E 18:51:39 10° S
ISS -1.6 18:43:57 10° WNW 18:46:25 19° NNW 18:46:31 19° NNW
CZ-4B R/B 4.1 18:51:23 10° NNW 18:53:27 17° WNW 18:55:32 10° WSW
Cosmos 2366 rocket 3.9 18:50:16 10° N 18:56:30 84° W 19:02:38 10° S
Cosmos 1151 Rocket 3.6 18:52:47 10° SSW 18:57:00 54° W 19:00:18 16° N
Cosmos 1328 Rocket 4.2 18:58:54 10° SSW 19:03:06 53° W 19:05:44 22° N
Lacrosse 5 rocket 1.8 19:00:51 10° SW 19:03:47 49° W 19:03:47 49° W
CZ-2D R/B 4.5 19:04:55 10° S 19:08:30 41° W 19:12:08 10° NNW
USA 267 3.1 19:09:07 50° ESE 19:10:59 77° NE 19:17:32 10° NW
Meteor 1-4 Rocket 4.0 19:07:58 10° SSW 19:10:13 33° SW 19:10:13 33° SW
CZ-4 R/B 3.0 19:14:25 27° NNW 19:14:25 27° NNW 19:16:21 10° NNW
DMSP B5D1-3 4.4 19:14:44 82° NNE 19:14:59 89° E 19:20:07 10° SSW
Cosmos 489 Rocket 4.3 19:10:09 10° SSW 19:16:22 88° WNW 19:18:17 47° NNE
CSL-04 Debris 4.1 19:17:54 70° NNE 19:17:54 70° NNE 19:22:49 10° NNW
ATLAS CENTAUR R/B 3.9 19:05:19 10° NW 19:24:46 83° NE 19:27:27 51° SE
H-2A R/B 2.4 19:33:04 61° NW 19:33:04 61° NW 19:37:32 10° NNW
Nadezhda 3 Rocket 4.0 19:34:00 10° S 19:39:56 77° SW 19:39:56 77° SW
USA 281 4.2 19:39:42 10° S 19:45:53 44° WSW 19:52:08 10° NW
Cosmos 2369 Rocket 3.8 19:41:47 10° NNW 19:43:59 24° NNW 19:43:59 24° NNW
Cosmos 1943 Rocket 3.9 20:10:20 10° NW 20:13:17 27° WNW 20:13:17 27° WNW
